Tracking 18957 objects as of 22-Jan-2018
HD Live streaming from Space Station
objects crossing your sky now

FENGYUN 1C DEB

Track FENGYUN 1C DEB now!
10-day predictions


NORAD ID: 40696
Int'l Code: 1999-025EXC
Perigee: 857.3 km
Apogee: 976.0 km
Inclination: 99.0 °
Period: 103.2 minutes
Semi major axis: 7287 km
RCS: Unknown
Launch date: May 10, 1999
Source: People's Republic of China (PRC)
Launch site: Taiyaun Space Center, China (TSC)

Note: This is SATELLITE DEBRIS
aabbcc
Your satellite tracking list
Your tracking list is empty




NASA's NSSDC Master Catalog

Two Line Element Set (TLE):
1 40696U 99025EXC 18006.89401994 +.00000035 +00000-0 +55724-4 0  9994
2 40696 099.0300 042.2001 0081426 041.8977 318.8378 13.95480628152668
Source of the keplerian elements: AFSPC